Theta_e
341 341 338 335 341 348 352 351 348 350 350 344 343 346 346 343 346 349 338 341 341 341 343 343 343 343 342 341 341 340 340 340 340 340 340 340 340 339 338 338 338 342 344 343 344 342 345 343 343
339 337 333 334 345 352 350 346 353 350 347 345 345 345 345 347 339 338 335 340 342 341 342 342 342 342 342 340 340 340 339 339 339 338 339 338 337 337 338 338 339 339 342 344 343 344 343 343 343
339 335 335 340 345 352 353 349 348 347 345 345 347 344 346 347 338 335 336 342 341 340 340 340 340 340 341 340 339 338 338 338 338 338 338 338 337 334 333 333 335 337 338 340 343 343 342 342 341
332 333 335 342 345 346 349 348 345 346 344 342 342 346 343 342 342 340 339 341 341 340 340 339 339 339 339 339 338 338 338 337 337 337 337 336 336 333 332 332 331 332 334 331 335 338 340 341 339
335 332 340 343 344 344 344 342 344 346 345 344 343 345 346 341 341 340 340 340 338 338 337 336 337 336 335 333 328 326 326 327 327 327 328 330 330 330 329 329 331 333 330 327 325 325 331 337 336
334 332 340 348 344 343 341 345 343 344 344 343 343 343 345 340 339 339 339 334 332 330 330 330 332 331 326 323 322 321 321 320 320 320 322 325 328 333 333 332 330 329 327 326 326 324 323 324 325
334 333 343 345 342 343 344 343 344 344 343 343 340 347 342 340 338 336 334 333 332 329 324 323 324 324 324 325 326 326 326 326 322 321 319 323 325 323 324 328 330 331 332 330 329 327 326 324 322
331 334 345 343 346 348 345 345 343 344 346 340 340 345 345 339 336 336 335 333 330 324 320 320 320 320 320 322 323 321 323 323 327 321 322 318 317 317 318 324 328 331 332 331 332 334 334 331 326
333 338 342 340 344 344 345 345 340 339 342 340 338 340 338 338 337 335 333 324 322 321 321 322 322 321 321 320 319 319 319 319 318 318 319 318 317 317 317 319 323 324 327 329 330 331 331 331 329
335 336 341 337 338 345 344 343 342 344 343 343 339 336 334 330 327 324 321 323 323 322 321 320 320 320 320 320 319 318 318 317 316 317 317 317 316 316 316 316 317 317 321 322 324 325 326 327 326
339 342 339 340 343 342 342 341 339 342 343 341 338 331 335 329 325 325 325 323 323 322 322 321 321 321 321 321 320 319 317 316 315 315 317 317 317 316 316 315 314 314 314 317 319 322 324 325 325
342 342 341 339 343 343 342 339 338 338 337 335 328 327 327 325 324 324 324 323 323 323 324 323 322 322 321 319 317 317 315 315 314 315 315 314 313 312 311 311 310 310 310 311 313 319 319 320 324
338 344 344 342 341 340 338 339 339 336 331 326 325 325 325 325 324 324 324 323 323 324 324 323 322 320 315 314 315 315 315 316 315 313 313 311 310 310 309 309 308 309 310 311 312 315 317 318 317
335 342 342 340 339 337 338 338 338 336 330 327 325 325 325 325 324 324 323 325 325 325 323 322 318 312 313 314 313 314 315 315 314 312 311 310 310 310 311 311 310 309 309 310 312 313 315 317 317
337 338 336 336 342 339 337 341 340 334 330 328 326 324 325 324 324 324 324 325 325 323 322 318 315 311 313 314 313 312 312 312 311 311 311 309 310 311 311 311 311 312 311 311 311 312 314 316 316
337 335 337 331 342 339 340 345 339 334 332 330 326 324 324 323 324 325 326 325 323 322 320 317 315 312 311 311 312 311 313 312 312 311 310 310 311 312 312 312 312 312 312 312 311 312 312 312 314
334 336 337 339 335 339 340 342 339 334 333 332 325 324 325 324 324 326 326 325 322 322 319 317 316 314 311 312 311 311 311 312 313 310 309 310 311 312 311 312 311 312 312 312 312 312 312 312 313
336 337 337 339 338 340 340 342 339 337 336 334 329 326 326 325 327 328 326 323 322 320 319 317 315 313 311 311 312 311 311 312 311 311 310 311 311 311 312 312 311 312 312 312 312 312 311 311 313
334 334 338 335 334 337 340 340 341 338 336 337 333 330 329 327 328 327 326 323 321 320 319 318 315 313 311 311 312 313 313 312 311 311 311 312 311 312 312 311 312 312 313 313 312 312 312 313 312
336 337 337 338 336 336 338 341 337 335 334 335 333 332 330 329 328 325 324 322 320 320 319 317 316 313 312 312 313 313 313 313 312 313 313 312 312 312 312 312 311 312 313 313 312 313 313 313 312
333 335 337 338 336 334 334 336 337 333 331 330 328 327 329 328 326 325 324 322 321 320 319 317 315 313 313 313 314 314 314 313 312 313 312 312 312 312 312 311 311 312 313 313 313 313 312 313 314
333 333 337 336 337 340 334 336 338 337 332 331 330 329 328 328 326 325 324 322 321 321 319 318 315 314 314 313 314 314 314 313 313 313 313 312 312 312 311 311 311 313 312 313 313 313 313 313 313
331 330 336 336 335 333 332 332 334 335 334 331 328 325 324 323 325 324 324 323 321 320 318 317 315 314 313 312 314 314 314 313 313 313 312 312 312 312 312 311 311 312 313 313 313 313 313 314 314
330 332 327 326 327 331 332 330 329 333 334 332 330 327 326 323 324 325 324 322 320 318 317 316 314 313 313 312 313 313 314 314 313 313 312 312 312 312 312 310 311 313 313 314 313 314 314 313 313
321 321 323 325 333 336 331 326 327 328 330 330 329 328 326 324 325 322 322 318 317 317 316 315 314 313 313 313 313 314 313 314 314 313 313 312 313 313 311 311 312 313 313 313 313 314 315 315 314
327 321 323 329 336 335 330 334 328 327 328 326 327 327 325 324 322 320 321 317 316 316 315 315 314 313 312 312 314 314 314 315 314 313 313 313 313 313 311 311 312 313 313 313 313 313 314 315 314
329 329 323 330 328 330 332 331 327 327 328 328 326 324 322 321 321 319 317 315 315 315 315 314 313 313 312 313 314 314 315 315 315 315 313 313 313 312 311 311 312 311 312 313 313 313 314 313 314
326 325 325 323 331 335 333 331 328 323 327 328 327 325 322 320 321 316 315 315 315 314 314 313 313 313 313 313 314 315 315 314 313 313 314 313 311 311 311 311 311 313 314 313 313 313 313 314 312
324 325 327 324 326 331 335 332 322 320 324 327 326 323 322 320 320 316 315 315 314 313 313 313 313 313 313 313 313 315 313 313 313 313 312 312 310 310 311 311 310 312 312 313 313 312 313 314 314
321 324 325 326 331 326 324 326 318 317 316 320 321 320 321 320 318 316 315 314 313 313 313 313 313 312 313 313 313 315 313 313 313 313 312 312 312 312 312 311 310 311 311 312 314 313 313 314 313
Wind_Speed
16 9 4 7 5 4 4 4 3 4 4 3 7 9 9 7 2 2 10 9 8 8 7 10 10 10 10 11 11 11 11 12 12 11 11 11 10 10 10 10 9 8 10 8 8 9 10 10 11
16 5 6 3 5 4 4 3 8 7 13 11 11 9 9 5 2 3 4 8 7 9 10 11 11 10 11 11 11 11 10 10 9 9 9 8 8 8 9 9 9 7 7 7 6 6 8 9 10
10 2 4 4 3 2 3 3 13 15 6 5 5 7 4 3 3 7 6 10 10 11 10 11 11 10 10 10 10 10 9 9 8 8 7 7 7 7 7 7 7 7 6 4 4 5 5 6 7
4 6 4 5 4 2 3 6 5 2 7 7 9 6 4 7 3 5 12 12 14 13 12 12 11 10 10 9 9 9 8 8 8 7 7 7 7 5 5 5 5 5 5 4 1 2 3 4 4
4 3 5 3 5 2 2 8 6 6 3 5 3 5 5 6 18 18 15 13 14 13 12 12 11 11 11 11 12 11 11 10 10 10 9 8 9 5 5 5 5 5 4 4 4 3 1 2 2
4 3 4 2 6 2 3 6 7 13 11 10 9 9 4 11 21 17 18 16 15 15 14 13 12 12 13 13 14 13 13 13 13 13 12 9 12 8 9 9 9 8 8 7 7 6 5 4 3
5 4 3 2 1 0 2 8 6 10 9 8 4 4 3 8 21 22 21 20 17 15 14 13 13 11 11 11 12 12 11 10 10 11 11 8 9 9 10 8 8 11 11 10 11 11 11 10 8
5 4 4 1 4 1 7 3 3 6 5 3 7 4 4 12 22 23 19 18 16 13 11 10 10 11 9 11 13 11 11 10 8 8 8 7 9 11 13 12 9 11 11 12 13 13 14 14 13
4 5 2 3 5 3 9 5 3 3 6 4 3 4 13 23 23 20 19 19 17 17 17 10 10 12 14 11 14 14 14 11 10 9 7 8 9 11 13 12 11 13 10 10 11 11 13 14 16
4 4 3 6 5 6 8 5 7 5 8 6 12 14 19 20 16 13 15 15 15 14 13 13 9 9 10 12 15 15 14 15 14 10 8 9 10 10 11 12 12 12 11 10 8 11 12 11 14
3 4 6 12 9 11 6 9 4 13 3 5 13 13 21 16 16 14 13 18 14 11 11 10 9 8 10 12 14 14 15 13 13 12 9 8 8 9 10 13 15 16 14 13 12 5 7 11 10
6 4 7 4 9 7 4 8 4 2 4 11 6 13 16 16 15 17 20 17 11 9 7 5 8 10 13 15 14 12 10 10 10 6 7 11 13 15 16 18 18 18 16 15 15 11 9 8 9
5 3 5 10 12 11 9 7 6 8 8 14 14 10 12 14 15 21 20 15 11 10 8 5 7 14 19 13 11 10 10 10 5 6 9 13 17 17 17 18 17 14 13 11 12 11 12 10 7
4 7 4 8 11 7 12 5 2 6 9 8 12 8 9 14 15 17 15 14 14 14 10 7 12 19 14 11 15 14 9 7 5 9 12 15 16 15 15 16 15 14 13 12 11 10 11 12 10
12 6 3 3 3 3 11 3 5 6 7 6 9 7 4 9 17 19 19 15 13 13 8 7 12 18 12 12 12 10 9 7 7 9 12 13 14 14 16 16 15 13 13 13 11 10 9 10 12
4 5 5 3 5 5 4 1 7 8 10 7 7 6 7 11 18 18 17 16 15 12 5 5 9 16 14 12 10 9 5 7 7 8 11 13 13 15 15 16 17 16 14 12 12 10 10 10 11
5 3 4 3 4 3 2 4 10 9 7 8 8 7 2 6 9 10 15 18 14 7 2 3 6 12 11 10 10 11 10 11 5 7 12 13 14 15 16 16 16 17 16 14 12 12 12 13 12
6 4 4 5 1 6 8 6 10 10 9 7 7 6 11 7 7 14 16 16 10 7 3 1 4 8 10 10 8 10 10 12 9 9 12 13 13 14 16 15 15 18 18 15 13 13 14 14 14
3 5 9 2 4 6 7 9 2 2 5 8 11 11 9 10 11 15 15 14 12 10 6 1 3 8 11 10 10 12 13 13 10 10 12 13 13 14 15 16 16 17 18 17 15 14 13 12 10
2 6 4 5 6 7 7 10 9 8 8 14 17 14 10 6 3 9 15 14 13 7 5 3 5 6 9 10 10 11 13 11 10 11 11 11 12 14 14 16 18 19 20 19 15 12 10 10 8
4 4 6 7 9 7 7 6 4 2 4 1 4 3 2 4 5 6 10 14 13 9 8 7 6 6 8 9 10 10 10 10 9 12 12 12 12 14 14 16 19 20 19 19 17 11 9 8 10
3 6 13 19 4 3 1 0 2 0 6 4 3 2 2 3 3 8 14 14 15 14 11 10 6 7 7 8 9 9 10 11 11 13 13 14 13 14 14 15 18 18 17 17 15 9 9 10 12
2 6 19 7 7 6 6 4 2 1 5 6 6 6 5 7 7 8 14 19 16 17 16 10 6 8 7 7 8 8 9 10 11 12 13 13 12 13 13 14 16 15 15 17 14 12 9 9 12
10 19 11 5 4 4 3 3 3 1 3 4 5 10 7 7 7 10 13 12 14 14 11 8 7 9 7 7 8 10 10 11 14 13 12 13 15 15 11 13 15 13 15 15 14 14 12 10 9
6 4 1 2 5 0 5 4 5 4 3 4 7 8 6 5 6 7 12 14 16 12 12 9 9 10 9 9 11 12 12 13 12 11 12 14 14 13 12 14 15 13 13 14 14 14 14 10 9
4 4 4 4 3 2 5 2 4 4 1 1 1 4 5 6 3 5 16 20 14 14 14 12 11 12 9 11 11 11 12 12 12 11 11 13 12 12 10 13 13 12 13 15 15 12 10 12 14
4 5 3 7 3 3 2 1 6 3 2 2 4 0 4 6 8 9 10 18 18 18 17 14 12 10 8 10 12 9 10 9 10 10 11 13 11 10 9 11 11 12 12 12 12 12 9 8 14
5 2 1 3 4 3 1 0 3 6 4 3 4 6 7 7 7 8 18 13 14 17 16 13 10 11 10 10 8 8 8 6 5 7 9 9 8 5 10 8 10 9 11 11 11 11 10 9 12
5 4 5 5 3 4 4 2 5 3 3 3 7 8 8 9 11 6 11 14 14 15 15 12 12 12 11 9 9 6 5 4 4 6 5 5 2 7 7 8 9 10 11 10 11 10 11 9 8
4 3 3 4 0 2 3 2 5 4 5 4 6 7 7 5 4 6 13 14 15 15 14 14 14 13 12 9 9 7 5 7 8 9 9 8 6 8 11 6 7 9 11 12 12 8 9 9 8
Wind_Direction
142 142 44 37 61 65 338 24 97 118 69 59 67 95 110 33 41 140 138 119 114 115 111 102 90 82 78 75 74 74 75 73 74 77 79 83 83 80 75 70 69 84 85 100 114 123 123 125 126
152 106 57 72 67 57 331 350 68 100 127 100 77 77 61 63 28 64 88 120 105 110 97 92 83 77 77 78 79 81 82 82 76 73 72 73 75 72 69 68 69 71 89 89 101 119 135 132 136
140 14 69 83 81 52 320 84 118 130 126 75 94 44 34 37 37 124 111 109 113 96 86 78 78 75 74 74 72 73 73 72 70 66 62 60 60 56 57 56 58 59 61 93 102 148 144 138 142
168 26 41 79 75 38 314 17 353 47 74 73 117 65 71 15 90 113 128 114 105 89 76 68 68 68 63 61 62 64 63 65 63 52 43 38 33 35 35 35 32 35 36 40 77 170 178 155 148
67 64 60 47 94 243 276 313 296 27 64 62 47 91 73 26 115 121 118 123 101 87 73 65 60 59 56 53 50 48 43 39 37 32 27 29 8 354 359 350 345 345 345 349 352 350 255 211 188
50 83 57 86 149 216 285 73 79 85 83 97 79 97 65 114 122 131 129 111 97 90 82 72 61 55 56 57 55 51 46 47 43 37 31 22 26 20 353 339 330 330 322 313 308 304 298 281 265
97 77 116 72 136 84 205 159 114 93 81 51 135 82 90 111 127 128 119 109 103 91 84 74 65 60 55 42 27 19 22 20 20 19 25 28 32 17 3 350 340 333 328 320 313 302 293 287 281
107 90 108 164 170 286 138 91 81 91 76 74 1 134 109 126 132 124 120 111 99 87 76 73 68 47 37 32 18 358 360 347 336 360 1 9 10 7 6 4 353 344 333 322 317 313 303 298 292
123 70 77 175 152 201 150 125 56 76 100 65 38 71 120 132 132 131 126 111 100 89 69 72 63 51 49 46 14 12 13 18 5 342 355 354 359 351 355 5 5 4 346 321 318 314 308 302 298
92 94 162 173 202 166 144 115 132 128 122 114 97 98 124 129 133 133 128 114 113 105 85 73 65 43 23 12 6 9 14 4 1 6 358 353 350 348 349 349 345 346 349 352 326 298 302 296 294
92 127 168 200 154 127 96 106 117 125 113 152 140 138 156 149 138 132 127 126 120 105 77 63 58 35 13 1 350 346 356 352 352 351 0 8 360 347 339 337 333 335 332 321 334 323 283 284 293
90 86 202 160 143 108 93 103 96 93 162 122 111 140 140 129 127 128 131 135 132 106 97 61 36 19 4 347 338 332 342 354 0 11 4 359 354 350 342 335 328 325 324 314 310 320 318 330 272
68 74 19 70 78 71 85 86 119 108 99 117 121 130 133 127 124 127 132 136 142 145 136 94 18 4 354 348 353 341 339 351 27 42 16 359 349 348 346 342 336 331 330 323 305 303 302 299 302
130 95 80 55 75 120 118 141 115 173 146 121 120 130 140 136 135 138 146 156 156 145 117 66 21 6 2 26 22 22 11 43 57 20 5 2 356 350 354 354 351 340 337 332 322 314 305 286 297
134 108 46 36 117 85 159 63 117 120 111 126 142 145 159 150 158 163 172 160 145 127 106 50 25 18 22 15 6 19 30 47 21 9 5 2 357 351 344 342 349 339 328 326 317 312 306 297 286
124 110 145 27 156 212 282 144 147 156 155 158 159 158 193 195 192 180 177 152 144 137 114 46 22 18 16 5 8 2 19 354 347 354 355 357 349 343 341 339 341 344 334 319 312 311 300 292 285
5 233 99 113 339 136 108 129 186 154 176 175 154 149 287 288 265 226 178 156 154 152 149 52 19 9 6 352 4 12 10 15 349 354 351 347 343 344 344 341 339 339 336 337 312 299 301 298 294
206 228 107 134 233 84 96 101 170 182 196 179 100 164 213 243 241 189 174 160 168 189 198 129 22 4 359 358 5 7 8 3 351 339 349 342 344 342 341 341 349 349 348 338 335 310 296 293 299
191 121 108 83 207 86 92 113 111 236 247 204 144 237 223 227 192 181 172 177 192 206 209 319 342 350 353 348 355 354 351 350 344 343 334 336 335 336 343 346 343 340 338 335 327 322 308 294 299
104 113 84 48 105 94 112 82 66 77 90 131 178 188 215 212 176 150 183 196 213 222 239 263 306 329 345 345 342 340 336 335 327 332 330 329 324 332 332 344 345 341 334 332 324 308 308 299 292
301 135 171 136 85 71 137 67 75 66 25 222 170 193 187 211 173 158 217 216 229 236 248 264 285 324 336 334 331 334 334 329 330 330 332 333 328 329 332 341 340 337 335 334 326 313 284 287 297
284 115 128 140 126 105 91 73 41 345 331 303 239 248 232 245 180 180 222 228 238 242 254 259 271 303 306 320 317 326 328 325 324 323 324 330 334 333 334 335 340 341 344 352 351 327 290 282 284
268 99 150 151 97 115 12 86 272 90 301 273 241 261 250 243 214 217 233 231 237 236 246 238 255 288 298 310 305 316 318 325 327 327 329 338 336 337 331 338 338 344 347 350 354 359 335 298 282
111 85 72 46 70 60 295 117 313 243 283 288 230 239 226 230 230 256 252 248 233 233 223 222 252 287 286 299 307 305 303 319 330 338 342 336 328 334 335 335 337 336 340 351 353 344 340 336 305
96 90 23 318 29 173 348 57 238 288 245 237 245 242 230 223 211 188 204 218 215 210 210 222 245 275 276 295 305 310 317 309 316 322 326 319 328 334 336 334 337 340 348 350 352 355 3 360 344
21 121 153 248 165 193 353 24 272 228 307 351 329 242 209 205 206 217 216 219 214 214 214 226 242 271 279 296 312 327 323 313 296 303 314 310 315 325 325 334 335 343 342 344 357 2 19 42 24
325 49 151 108 64 83 266 312 329 19 245 38 19 68 221 198 214 223 229 218 214 212 213 224 240 276 285 300 307 323 326 321 301 293 308 312 312 316 328 329 334 345 344 358 14 10 11 358 11
75 300 173 24 132 132 324 309 247 335 348 206 215 248 236 234 247 232 222 210 215 214 216 222 242 271 273 291 306 315 326 338 341 325 316 319 322 328 329 332 340 355 3 10 13 16 29 27 36
341 8 50 107 88 144 168 259 215 266 297 205 243 248 231 232 231 224 219 227 220 221 220 232 243 263 260 273 293 301 325 315 318 321 310 313 324 326 328 325 344 352 2 4 13 24 33 44 28
115 67 91 110 182 45 106 276 330 238 257 235 242 257 253 252 291 226 229 226 225 228 228 232 245 261 255 273 283 274 276 285 294 295 278 293 333 325 327 313 330 339 349 2 15 32 27 33 35